Beale Air Force Base, CA

4:04 PM PDT on July 29, 2016 (GMT -0700)
Beale Air Force Base

Weather History for KBAB - March, 2013

Change the Weather History Date:

Sunday, March 3, 2013

  Actual Average Record
Temperature  
Mean Temperature 60 °F -  
Max Temperature 65 °F 61 °F 66 °F (2002)
Min Temperature 55 °F 42 °F 33 °F (2012)
Degree Days  
Heating Degree Days 5    
Growing Degree Days 10 (Base 50)    
Moisture  
Dew Point 48 °F    
Average Humidity 68    
Maximum Humidity 80    
Minimum Humidity 56    
Precipitation  
Precipitation 0.00 in - - ()
Sea Level Pressure  
Sea Level Pressure 30.04 in    
Wind  
Wind Speed 7 mph (SSE)    
Max Wind Speed 13 mph    
Max Gust Speed -    
Visibility 10 miles    
Events      
Averages and records for this station are not official NWS values.
T = Trace of Precipitation, MM = Missing Value Source: NWS Daily Summary

Daily Weather History Graph

Daily Weather History Graph

Search for Another Location

Airport or City:

Trip Planner

Search our weather history database for the weather conditions in past years. The results will help you decide how hot, cold, wet, or windy it might be!

Date:

Astronomy

Mar. 03, 2013 Rise Set
Actual Time 6:34 AM PST 6:00 PM PST
Civil Twilight 6:08 AM PST 6:27 PM PST
Nautical Twilight 5:37 AM PST 6:58 PM PST
Astronomical Twilight 5:06 AM PST 7:29 PM PST
Moon No Moon Rise 9:57 AM PST (3/3)
Length of Visible Light 12h 19m
Length of Day
11h 25m
Waning Gibbous, 62% of the Moon is Illuminated
Mar 3
Waning Gibbous
Mar 4
Last Quarter
Mar 11
New
Mar 19
First Quarter
Mar 27
Full

Hourly Weather History & Observations

Time (PST) Temp. Dew Point Humidity Pressure Visibility Wind Dir Wind Speed Gust Speed Precip Events Conditions
12:58 AM 56.3 °F 49.6 °F 78% 30.06 in 10.0 mi ESE 9.2 mph - N/A   Overcast
1:58 AM 57.7 °F 48.6 °F 71% 30.06 in 10.0 mi East 4.6 mph - N/A   Overcast
2:58 AM 57.9 °F 48.6 °F 71% 30.04 in 10.0 mi SSE 5.8 mph - N/A   Overcast
3:58 AM 55.9 °F 49.8 °F 80% 30.04 in 10.0 mi SE 5.8 mph - N/A   Mostly Cloudy
4:58 AM 57.4 °F 48.0 °F 71% 30.04 in 10.0 mi SE 12.7 mph - N/A   Overcast
5:58 AM 57.0 °F 46.8 °F 69% 30.04 in 10.0 mi ESE 10.4 mph - N/A   Overcast
6:58 AM 55.4 °F 46.6 °F 72% 30.04 in 10.0 mi ESE 2.3 mph - N/A   Overcast
7:58 AM 56.3 °F 48.9 °F 76% 30.05 in 10.0 mi West 4.6 mph - N/A   Mostly Cloudy
8:58 AM 58.8 °F 47.5 °F 66% 30.05 in 10.0 mi SW 3.5 mph - N/A   Overcast
9:58 AM 58.8 °F 47.7 °F 66% 30.05 in 10.0 mi South 2.3 mph - N/A   Overcast
10:58 AM 59.4 °F 48.9 °F 68% 30.06 in 10.0 mi South 5.8 mph - N/A   Overcast
11:58 AM 59.7 °F 48.7 °F 67% 30.06 in 10.0 mi West 3.5 mph - N/A   Overcast
12:58 PM 61.0 °F 47.8 °F 62% 30.04 in 10.0 mi WNW 3.5 mph - N/A   Overcast
1:55 PM 62.6 °F 48.2 °F 59% 30.02 in 10.0 mi SSW 4.6 mph - N/A   Mostly Cloudy
2:55 PM 64.4 °F 48.2 °F 56% 30.02 in 10.0 mi SE 3.5 mph - N/A   Mostly Cloudy
3:58 PM 65.5 °F 49.3 °F 56% 30.01 in 10.0 mi SE 11.5 mph - N/A   Clear
4:55 PM 62.6 °F 48.2 °F 59% 30.01 in 10.0 mi SE 8.1 mph - N/A   Partly Cloudy
7:55 PM 59.0 °F 48.2 °F 67% 30.02 in 10.0 mi East 6.9 mph - N/A   Overcast
8:55 PM 57.2 °F 46.4 °F 67% 30.03 in 10.0 mi East 5.8 mph - N/A   Overcast
9:58 PM 57.2 °F 46.4 °F 67% 30.05 in 10.0 mi ESE 5.8 mph - N/A   Overcast
10:58 PM 55.4 °F 46.4 °F 72% 30.04 in 10.0 mi ESE 6.9 mph - N/A   Partly Cloudy